Find Starlink 34230

NORAD ID: 64137 Int'l Des: 2025-111 Owner: SPXS Country: US Constellation: starlink operational
LEOCIRCULAR

当前视图

正在加载3D地球...

About Starlink 34230

Starlink 34230 (NORAD 64137) is a starlink constellation satellite (v2 mini) launched May 24, 2025 by SPXS of US. It operates in LEO, CIRCULAR orbit with a mass of 575.00 kg.

关于 Starlink 34230

正在加载描述...

即将过境

Passes for default location (London). Set your location on the main map for personalized predictions.

高度历史

Loading altitude history...

两行轨道根数

1 64137U 25111Q 26164.83335647 .00202062 00000-0 78986-3 0 9992
2 64137 42.9824 219.3019 0024490 57.1939 305.8354 15.85208981 5910
Epoch: Jun 13, 2026 • Age: 4 hours

当前状态

高度 340.1 km
速度 7.70 km/s
星下点 -41.97°S, 120.74°W
发射日期 May 24, 2025
运行时间 1 year
类型 internet

技术详情

分类 Payload
质量 575.00 kg
干质量 530.00 kg
总质量 575.00 kg
长度 0.30 m
直径 4.10 m
跨度 29.00 m
形状 Box + pan
制造商 SPXS
平台类型 Starlink V2MO
阶段状态 In Orbit
所有者/国家 SPXS/US

Most Searched